Hourly Data Report for September 24, 2015

IQALUIT CLIMATE
NUNAVUT

63°44'50.000" N
68°32'40.000" W
33.50 m
2402592
71321
XFB

Download Data

Hourly Data (September 2015)
Hourly Data Report for September 24, 2015
TIME
LST
Temp Definition
°C
Dew Point Definition
°C
Rel Hum Definition
%
Precip. Amount Definition
mm

Wind Dir Definition
10's deg

Wind Spd Definition
km/h
Visibility Definition
km
Stn Press Definition
kPa
Hmdx Definition


Wind Chill Definition


Weather Definition


00:00 2.4 -2.5 70 0.0 7 34   99.29     LegendNANA
01:00 2.5 -3.4 65 0.0 7 36   99.39     LegendNANA
02:00 2.7 -3.4 64 0.0 8 30   99.50     LegendNANA
03:00 2.6 -3.4 65 0.0 8 29   99.66     LegendNANA
04:00 2.5 -3.4 65 0.0 7 22   99.81     LegendNANA
05:00 2.4 -3.9 63 0.0 8 17   99.99     LegendNANA
06:00 2.1 -3.4 67 0.0 6 22   100.14     LegendNANA
07:00 1.3 -1.5 82 0.0 1 17   100.31     LegendNANA
08:00 2.3 -1.9 74 0.0 2 15   100.39     LegendNANA
09:00 2.7 -2.2 71 0.0 35 14   100.49     LegendNANA
10:00 3.0 -2.4 68 0.0 3 17   100.58     LegendNANA
11:00 3.9 -2.2 65 0.0 2 21   100.66     LegendNANA
12:00 3.9 -2.3 64 0.0 35 15   100.72     LegendNANA
13:00 3.3 0.2 80 0.0 32 19   100.81     LegendNANA
14:00 4.1 -0.4 73 0.0 32 23   100.88     LegendNANA
15:00 3.7 0.0 77 0.0 31 23   100.96     LegendNANA
16:00 3.2 -0.1 79 0.0 32 19   101.01     LegendNANA
17:00 2.4 -1.3 77 0.0 32 21   101.06     LegendNANA
18:00 1.3 -2.0 79 0.0 32 18   101.11     LegendNANA
19:00 1.5 -1.7 79 0.0 30 20   101.13     LegendNANA
20:00 1.5 -1.1 83 0.0 31 16   101.16     LegendNANA
21:00 1.4 -1.2 83 0.0 32 24   101.16     LegendNANA
22:00 0.2 -1.8 86 0.0 32 15   101.20     LegendNANA
23:00 -0.3 -2.1 88 0.0 32 18   101.24   -5 LegendNANA

Notes on Data Quality.

Legend

  • E = Estimated
  • M = Missing
  • NA = Not Available*
  • [empty] = Indicates an unobserved value
Date modified: